Weather in Hachinohe

Japan     40°30′13″N   141°30′28″E
temp.,
°C
wind,
m/s
gust,
m/s
humid.,
%
clouds,
%
prec.,
mm/h
press.,
hPa
HPBL,
m
25 october, mon
mon2500:00+8sw37840 0.0 1026136
03:00+8sw46840 0.0 1026128
06:00+8sw36840 0.0 1027111
09:00+14sw34610 0.0 1026332
12:00+17sse124753 0.0 10251296
15:00+15e3462100 0.0 1023386
18:00+11sse34769 0.0 1024130
21:00+11ssw237891 0.0 102454
26 october, tue
tue2600:00+10s2378100 0.0 102376
03:00+11ssw2278100 0.0 102161
06:00+11sw1177100 0.0 102044
09:00+13s1174100 0.0 102084
12:00+12se61190100 3.8 1019878
15:00+11n1187100 5.4 1018249
18:00+11nw239137 0.1 1016184
21:00+9w239353 0.1 1016181
27 october, wed
wed2700:00+8wsw34925 0.0 1015109
03:00+7sw35904 0.0 101599
06:00+7sw4790100 0.0 1016156
09:00+12sw4883100 0.0 1016308
12:00+15sw4770100 0.0 1015654
15:00+15ssw3673100 0.0 1014516
18:00+12ssw3590100 0.1 1015134
21:00+11ssw3791100 0.1 1015208
28 october, thu
thu2800:00+11ssw359115 0.0 1014111
03:00+10ssw47915 0.0 1013144
06:00+11sw378981 0.2 1014173
09:00+13wsw497899 0.3 1016695
12:00+16wsw69485 0.0 10141856
15:00+14wsw61065100 0.1 10151350
18:00+10wsw377570 0.0 1017327
21:00+8wsw39795 0.3 1018480
29 october, fri
fri2900:00+8wsw410735 0.0 1019436
03:00+8w26795 0.0 1020361
06:00+7wsw36800 0.0 1021260
09:00+12nw59615 0.0 10231312
12:00+14nnw575158 0.0 10231895
15:00+12nw486529 0.1 1023612
18:00+10nw36733 0.0 1024376
21:00+8wnw248317 0.0 1024273